Wind_Speed
43 42 40 39 40 41 41 41 42 43 43 43 43 43 42 41 41 41 41 41 40 39 39 40 40 40 39 38 37 36 35 34 32 30 29 28 25 23 22 22 24 25
48 47 45 44 44 45 46 47 47 47 47 48 48 48 48 46 46 45 46 46 45 44 45 44 41 39 38 37 36 35 34 33 31 30 29 28 27 27 27 28 29 29
53 52 51 50 49 49 49 49 49 49 49 50 50 49 49 49 49 49 50 49 49 49 49 46 43 40 38 37 36 35 35 34 32 32 32 31 31 31 32 32 32 32
55 55 54 53 53 52 51 50 50 49 49 48 48 48 48 49 51 52 52 52 52 51 49 46 43 40 39 38 38 37 37 36 35 34 34 34 34 34 35 35 35 35
55 54 53 53 54 55 54 53 52 51 50 50 50 51 52 53 54 55 56 56 55 53 50 47 44 42 42 41 41 40 39 38 37 36 36 36 37 37 36 36 37 39
56 55 54 54 56 57 57 56 55 54 53 54 54 55 56 56 57 59 60 59 57 53 50 48 46 45 44 44 43 43 41 40 40 39 39 40 40 40 39 39 40 41
56 57 56 57 57 57 56 56 56 56 55 56 56 56 55 56 57 58 59 58 55 53 51 48 47 46 45 45 45 44 43 43 43 43 44 45 45 44 43 43 44 44
56 57 56 55 54 53 54 55 56 56 55 55 53 52 52 53 53 53 52 52 51 51 49 48 47 47 46 46 45 45 46 46 47 48 48 48 48 48 48 47 47 47
57 55 53 49 48 48 50 51 54 56 56 56 55 53 52 52 52 52 52 51 51 50 49 48 48 48 48 48 47 48 48 49 50 50 49 49 49 49 49 49 49 50
58 56 54 50 49 50 53 55 56 57 58 57 55 54 53 54 54 54 53 53 52 50 49 49 49 48 49 49 49 48 49 50 51 51 51 50 49 50 51 52 53 54
59 58 58 56 54 53 53 54 54 54 55 55 55 55 56 57 56 54 53 53 51 50 50 51 52 52 53 52 51 49 49 49 50 51 51 51 51 51 53 54 55 55
60 60 61 61 60 55 50 47 48 50 53 55 56 57 57 57 56 54 53 52 51 51 52 53 54 55 56 56 55 54 53 53 53 53 51 51 51 50 51 53 53 53
57 59 60 59 57 55 52 49 49 51 52 54 55 55 56 57 56 54 52 50 51 51 50 51 52 55 58 59 58 56 55 54 53 52 51 50 50 50 52 53 52 51
48 51 56 57 56 54 54 54 52 51 52 54 54 53 53 54 55 55 53 52 53 53 52 54 56 57 59 59 57 56 55 54 52 51 52 53 53 54 54 53 51 51
42 46 51 54 57 58 59 60 58 56 56 55 51 50 51 52 53 55 54 53 53 53 53 55 56 58 56 51 49 49 48 47 47 47 49 51 52 53 53 51 51 52
45 50 53 57 59 62 65 66 64 63 62 56 50 48 49 50 51 53 53 54 53 53 53 54 53 54 52 45 43 45 43 41 44 46 47 49 50 52 52 53 53 53
52 56 60 63 64 64 66 67 66 67 69 66 62 60 60 59 59 60 60 61 62 61 61 61 59 58 57 51 49 50 50 49 51 53 53 54 56 57 58 57 56 56
61 63 64 65 66 66 67 67 68 70 73 74 75 75 75 74 74 74 73 73 74 72 69 70 70 69 68 65 62 62 62 61 62 62 62 63 64 65 64 60 58 58
66 67 67 68 70 71 72 73 75 76 77 77 77 78 78 78 78 78 78 76 76 76 75 76 76 76 75 73 72 71 70 69 70 70 70 70 70 69 66 62 60 62
66 66 68 69 70 72 74 76 78 80 82 82 82 82 81 81 80 79 78 77 77 78 78 78 78 79 79 77 75 73 73 74 76 76 74 72 71 69 67 67 69 73
65 65 65 66 67 68 70 73 75 78 81 84 85 85 85 85 83 82 81 80 80 80 81 81 80 80 79 78 77 77 77 77 77 75 72 70 69 70 72 76 80 84
68 67 67 67 67 67 68 70 71 73 76 79 81 83 85 85 86 86 86 85 84 84 83 82 82 81 80 80 79 79 77 76 75 73 72 72 74 77 81 85 87 88
71 72 73 73 74 74 74 75 75 76 77 79 80 81 82 83 84 85 85 84 84 83 82 81 80 80 80 80 80 80 79 78 78 78 79 82 84 87 89 91 92 92
72 73 74 76 77 78 79 80 81 82 82 83 83 84 85 85 85 85 84 84 83 82 83 84 83 83 83 83 83 83 84 85 86 87 87 89 91 92 94 96 96 96
69 70 72 74 77 79 80 82 83 84 85 86 86 87 88 88 88 88 88 87 86 85 87 88 88 88 88 88 89 89 90 92 93 93 93 93 94 96 97 98 98 98
66 67 68 71 73 75 77 79 81 83 85 86 87 89 90 91 91 91 91 91 90 89 90 91 92 92 92 92 93 94 95 96 97 98 97 97 98 99 99 100 99 98
Wind_Direction
254 253 256 257 258 260 263 266 270 273 275 276 277 277 278 279 280 280 280 280 279 280 284 287 286 282 280 282 283 283 285 287 288 288 291 291 288 286 289 293 295 295
254 255 258 260 259 260 265 269 272 274 275 276 276 277 277 277 277 277 278 278 278 280 284 288 287 282 280 280 281 282 285 288 289 290 293 293 291 292 294 297 299 299
254 256 259 261 260 261 267 271 273 274 275 275 275 275 276 276 277 277 278 277 278 281 284 286 284 282 280 281 282 284 286 289 290 291 292 292 292 292 295 297 298 300
255 256 259 260 259 263 269 273 273 273 273 272 273 273 274 275 276 277 278 278 279 280 282 282 282 281 281 282 285 287 287 289 290 289 288 288 289 290 291 294 296 298
257 258 260 260 260 264 269 272 272 272 271 271 271 272 274 275 275 276 276 276 277 278 280 282 284 285 285 287 288 288 289 290 290 289 286 284 284 285 287 290 292 295
257 258 260 263 264 267 270 272 272 273 273 273 274 275 275 276 276 277 277 278 278 280 283 286 288 288 288 289 289 289 290 290 290 288 285 283 283 282 283 286 290 292
256 257 260 263 266 268 269 270 271 272 273 274 275 276 276 277 278 279 280 281 283 285 287 287 287 287 287 287 288 289 288 288 288 286 285 284 283 282 281 284 287 289
257 258 260 262 265 266 267 268 269 271 272 274 274 274 274 275 277 278 280 281 283 285 285 285 285 284 285 285 285 285 285 284 284 284 284 283 282 281 281 283 285 287
257 257 258 261 264 265 266 268 270 271 272 273 271 270 270 272 274 276 277 278 279 280 280 281 281 281 281 280 280 279 278 278 278 279 281 281 281 280 280 282 284 286
255 255 256 259 262 264 265 267 270 271 270 268 266 266 267 270 273 275 276 277 278 278 278 278 278 277 277 278 278 278 277 276 276 277 279 280 280 280 281 283 285 286
254 254 255 257 261 265 266 267 268 266 263 261 261 264 268 271 272 273 274 276 276 275 275 275 274 274 275 275 275 275 275 277 277 278 279 279 279 281 282 283 284 285
258 258 258 260 262 262 260 260 262 263 263 264 266 268 270 270 270 270 272 272 271 271 272 273 274 275 274 273 273 274 276 277 279 280 278 276 277 279 281 283 284 285
262 263 262 262 260 257 254 255 261 268 270 271 271 270 269 268 267 267 269 270 271 272 272 275 278 277 275 274 276 277 278 279 279 279 278 278 280 282 285 287 286 285
261 262 262 261 258 253 251 253 260 268 271 269 269 269 270 270 270 270 270 271 272 272 274 277 278 277 277 280 282 282 282 282 281 280 281 283 285 286 287 286 284 284
255 254 255 256 256 254 254 256 259 264 268 267 264 264 267 269 271 272 272 271 271 271 274 277 278 278 280 282 282 283 284 281 278 277 279 281 283 283 283 282 280 281
245 245 246 249 254 258 260 262 262 261 263 262 258 258 263 266 267 270 271 271 271 272 273 274 275 279 281 276 271 274 276 273 272 273 274 275 276 277 278 278 277 277
239 242 245 249 253 256 258 261 262 260 258 257 255 257 261 263 265 267 270 271 271 272 273 273 272 274 276 272 266 267 269 269 271 273 271 271 273 274 275 276 275 275
242 245 247 248 249 250 250 252 254 255 256 257 259 260 261 262 263 265 267 268 269 270 270 272 272 272 274 272 267 267 269 270 272 273 271 271 272 273 274 273 272 273
246 247 248 248 247 247 247 247 248 250 252 254 257 260 261 263 264 264 265 266 267 268 269 270 271 272 273 272 269 269 269 271 273 274 273 272 271 271 272 271 271 274
246 247 248 248 248 247 247 248 248 249 250 251 253 255 258 260 261 262 263 264 265 267 268 269 270 271 271 271 271 270 271 272 274 274 273 271 270 269 269 270 272 276
248 248 249 249 249 249 249 249 250 250 251 251 252 254 256 257 258 259 261 262 264 265 267 267 268 268 268 269 269 270 271 272 272 271 269 268 267 267 269 272 275 278
248 249 250 251 252 251 251 252 253 253 253 254 254 255 256 257 258 259 261 262 263 264 265 265 266 266 266 267 268 268 269 268 266 265 265 266 267 269 271 274 276 278
250 250 251 252 252 253 253 254 255 256 256 257 257 258 259 259 260 261 261 262 263 263 264 263 263 264 265 266 267 267 266 265 264 265 266 268 270 271 273 275 277 278
253 253 253 253 253 253 254 254 255 256 256 257 258 259 260 261 262 262 262 262 262 263 263 263 263 263 264 265 266 266 266 266 267 267 268 269 271 272 273 275 277 278
255 254 254 254 253 253 253 254 254 255 256 257 258 258 259 260 261 262 262 262 262 263 263 264 264 264 264 265 266 266 267 268 268 269 269 270 271 272 273 275 276 277
259 257 256 255 255 254 254 254 254 255 256 256 257 258 259 259 260 261 261 262 262 262 263 264 265 265 265 265 266 266 267 267 268 269 269 270 271 272 273 274 275 276
Height
10624 10625 10626 10627 10628 10627 10628 10628 10629 10629 10630 10630 10631 10632 10634 10636 10637 10637 10639 10641 10642 10643 10643 10644 10644 10643 10643 10643 10642 10642 10641 10641 10640 10639 10639 10638 10637 10636 10636 10635 10635 10634
10620 10620 10621 10621 10622 10622 10622 10623 10623 10624 10624 10625 10626 10626 10628 10630 10631 10632 10634 10635 10637 10638 10638 10639 10639 10639 10638 10638 10638 10637 10637 10636 10635 10635 10634 10633 10633 10632 10631 10631 10630 10630
10615 10615 10615 10615 10616 10616 10616 10617 10617 10618 10618 10619 10620 10620 10622 10623 10625 10627 10628 10630 10631 10632 10632 10633 10633 10633 10633 10632 10632 10632 10631 10631 10630 10629 10628 10628 10627 10626 10626 10625 10625 10625
10610 10609 10609 10610 10611 10610 10610 10610 10611 10612 10613 10613 10614 10614 10615 10616 10618 10620 10622 10623 10624 10625 10626 10626 10627 10627 10626 10626 10626 10625 10625 10624 10624 10623 10622 10621 10621 10620 10620 10620 10619 10619
10603 10603 10604 10604 10604 10605 10605 10605 10605 10606 10607 10607 10608 10608 10609 10610 10612 10613 10615 10616 10618 10619 10619 10619 10619 10619 10619 10618 10618 10618 10618 10617 10616 10616 10615 10615 10614 10614 10614 10613 10613 10613
10598 10598 10598 10598 10598 10599 10600 10599 10599 10600 10601 10601 10601 10602 10602 10603 10604 10605 10607 10608 10610 10611 10611 10611 10610 10610 10610 10610 10610 10610 10609 10609 10609 10609 10608 10608 10608 10608 10608 10607 10607 10606
10594 10594 10595 10594 10594 10594 10594 10593 10593 10594 10595 10595 10595 10595 10595 10595 10596 10597 10598 10599 10600 10601 10602 10602 10602 10602 10602 10602 10602 10602 10601 10601 10601 10601 10601 10601 10601 10601 10601 10600 10600 10600
10590 10591 10591 10591 10590 10589 10588 10588 10588 10589 10589 10589 10590 10590 10589 10589 10590 10591 10592 10593 10593 10594 10594 10594 10594 10595 10595 10595 10595 10595 10595 10594 10594 10594 10594 10594 10593 10593 10593 10593 10593 10593
10586 10587 10587 10586 10585 10584 10582 10582 10582 10583 10584 10584 10584 10585 10585 10585 10586 10587 10588 10588 10588 10589 10588 10588 10588 10588 10588 10588 10588 10589 10588 10588 10587 10587 10587 10587 10587 10586 10586 10586 10586 10586
10582 10583 10582 10582 10581 10579 10577 10576 10576 10577 10577 10577 10578 10579 10580 10581 10582 10583 10583 10583 10583 10583 10583 10582 10582 10582 10582 10581 10582 10582 10581 10581 10580 10580 10581 10581 10580 10580 10579 10579 10578 10578
10577 10577 10577 10578 10578 10574 10569 10568 10568 10569 10570 10571 10572 10574 10575 10576 10576 10577 10577 10577 10577 10577 10577 10576 10575 10575 10574 10574 10574 10574 10574 10574 10573 10573 10574 10574 10573 10573 10571 10571 10570 10569
10571 10571 10571 10573 10572 10565 10560 10560 10562 10563 10564 10566 10567 10568 10569 10569 10570 10570 10570 10570 10571 10571 10570 10568 10567 10565 10564 10564 10566 10567 10568 10568 10567 10566 10566 10566 10566 10565 10563 10562 10563 10560
10567 10565 10563 10564 10562 10558 10556 10556 10557 10558 10558 10559 10559 10559 10559 10560 10561 10562 10563 10564 10564 10564 10563 10561 10558 10554 10551 10553 10558 10561 10562 10562 10559 10556 10556 10556 10558 10558 10557 10556 10555 10551
10562 10558 10553 10553 10553 10552 10552 10552 10553 10553 10552 10551 10550 10550 10550 10552 10554 10555 10556 10557 10557 10557 10556 10553 10549 10545 10543 10546 10550 10551 10553 10553 10551 10548 10547 10548 10550 10551 10551 10549 10547 10544
10555 10550 10545 10544 10544 10545 10546 10547 10548 10547 10544 10544 10544 10543 10544 10546 10548 10548 10548 10550 10551 10552 10549 10544 10540 10539 10540 10542 10542 10542 10543 10543 10541 10540 10541 10541 10542 10543 10543 10542 10540 10538
10548 10545 10542 10540 10539 10540 10540 10541 10542 10539 10537 10537 10538 10537 10537 10540 10541 10541 10541 10543 10545 10545 10542 10538 10535 10535 10537 10538 10536 10536 10537 10536 10534 10534 10535 10535 10535 10535 10535 10535 10533 10531
10543 10541 10540 10538 10537 10537 10536 10535 10534 10532 10529 10529 10529 10529 10530 10532 10534 10535 10535 10536 10538 10538 10536 10533 10532 10531 10532 10533 10532 10529 10529 10530 10530 10529 10530 10530 10529 10528 10528 10528 10527 10525
10535 10534 10533 10532 10532 10531 10530 10530 10528 10523 10521 10520 10520 10521 10522 10524 10526 10527 10528 10529 10529 10530 10529 10528 10526 10525 10526 10526 10526 10523 10521 10522 10522 10523 10523 10523 10522 10521 10521 10520 10520 10519
10525 10525 10523 10522 10521 10521 10521 10521 10519 10516 10513 10513 10513 10513 10513 10515 10516 10517 10519 10521 10520 10520 10521 10520 10518 10518 10517 10517 10517 10517 10515 10514 10513 10514 10514 10514 10513 10513 10512 10513 10513 10512
10515 10514 10512 10511 10510 10510 10510 10511 10510 10508 10506 10506 10506 10506 10506 10505 10506 10508 10510 10512 10512 10511 10511 10510 10509 10509 10508 10508 10509 10509 10508 10506 10505 10504 10504 10504 10505 10505 10504 10504 10504 10504
10505 10503 10502 10501 10501 10500 10500 10501 10500 10499 10498 10498 10498 10498 10498 10497 10498 10500 10502 10504 10504 10502 10502 10501 10500 10499 10499 10499 10500 10500 10499 10498 10496 10495 10495 10496 10496 10496 10495 10494 10493 10494
10497 10495 10493 10493 10492 10492 10491 10491 10491 10491 10490 10489 10489 10488 10488 10489 10490 10491 10493 10495 10495 10494 10493 10492 10491 10490 10490 10490 10490 10490 10489 10488 10487 10487 10487 10487 10487 10487 10485 10483 10483 10483
10487 10486 10485 10485 10484 10483 10483 10483 10483 10482 10480 10479 10479 10479 10478 10479 10480 10481 10483 10485 10485 10484 10483 10482 10482 10481 10480 10480 10480 10479 10479 10478 10477 10479 10479 10478 10478 10478 10474 10472 10473 10474
10477 10477 10477 10476 10474 10474 10474 10474 10473 10472 10471 10471 10470 10469 10468 10468 10469 10470 10472 10474 10476 10475 10473 10471 10472 10472 10471 10471 10470 10470 10469 10468 10467 10469 10471 10470 10469 10468 10464 10462 10464 10465
10465 10467 10466 10464 10463 10463 10463 10463 10463 10462 10461 10462 10461 10459 10458 10459 10459 10459 10460 10462 10464 10466 10463 10460 10461 10462 10461 10461 10461 10460 10459 10457 10456 10458 10460 10460 10460 10458 10454 10453 10454 10455
10452 10454 10454 10452 10451 10451 10452 10452 10452 10452 10450 10450 10450 10449 10447 10448 10449 10449 10449 10450 10452 10455 10454 10450 10449 10449 10450 10450 10449 10448 10448 10446 10444 10445 10447 10449 10449 10448 10446 10444 10443 10444